"Time","Temp","Dewpoint","Humidity","Pressure","Direction","Speed","Gust","Precip","PrecipRate"
"00:04:58","80.2","68.2","67","29.94","325","1.1","3.6","0.00","0.00"
"00:09:59","80.1","68.5","67.8","29.94","313","1.1","3.6","0.00","0.00"
"00:14:58","79.9","68.4","68","29.94","315","0.8","2.4","0.00","0.00"
"00:19:59","79.7","68.2","68","29.94","303","0.4","2.4","0.00","0.00"
"00:24:59","79.4","68.2","68.7","29.94","296","0.1","1.2","0.00","0.00"
"00:29:59","79.2","68.1","69","29.94","296","0.3","2.4","0.00","0.00"
"00:34:56","79","68.1","69.1","29.94","296","0","1.2","0.00","0.00"
"00:39:56","78.8","68.2","70","29.94","296","0.9","3.6","0.00","0.00"
"00:44:59","78.6","68.1","70.3","29.94","335","1.1","4.8","0.00","0.00"
"00:49:57","78.4","68.2","71","29.93","323","0.7","3.5","0.00","0.00"
"00:54:59","78.2","68","71","29.93","323","0.9","2.4","0.00","0.00"
"00:59:57","78.2","68.3","71.7","29.93","323","0.4","3.6","0.00","0.00"
"01:04:59","78.2","68.4","72","29.93","336","1.5","4.8","0.00","0.00"
"01:09:59","78.2","68.4","72","29.93","339","0.7","3.6","0.00","0.00"
"01:14:59","78.1","68.3","72","29.93","339","0.1","1.2","0.00","0.00"
"01:19:57","77.9","68.2","72.3","29.93","339","0.1","1.2","0.00","0.00"
"01:24:59","77.6","68.3","73","29.93","339","0","0","0.00","0.00"
"01:29:58","77.4","68.1","73.1","29.93","339","0","0","0.00","0.00"
"01:34:56","77.1","68.2","74","29.93","339","0","0","0.00","0.00"
"01:39:59","76.9","68.1","74.4","29.93","339","0","0","0.00","0.00"
"01:44:58","76.5","68.2","75.3","29.93","339","0","0","0.00","0.00"
"01:49:57","76.1","68.1","76.3","29.93","339","0","0","0.00","0.00"
"01:54:56","75.7","68","77","29.93","339","0","0","0.00","0.00"
"01:59:58","75.3","68","77.9","29.93","339","0","0","0.00","0.00"
"02:04:56","75","67.7","78.2","29.93","339","0","0","0.00","0.00"
"02:09:56","74.6","67.7","79","29.93","339","0","0","0.00","0.00"
"02:14:56","74.3","67.4","79","29.93","339","0","0","0.00","0.00"
"02:19:58","74.1","67.4","79.8","29.93","339","0","0","0.00","0.00"
"02:24:56","73.8","67.3","80.4","29.93","339","0","0","0.00","0.00"
"02:29:59","73.5","67.3","81","29.93","339","0","0","0.00","0.00"
"02:34:58","73.2","67","81.1","29.93","339","0","0","0.00","0.00"
"02:39:57","72.9","67.1","82","29.93","339","0","0","0.00","0.00"
"02:44:55","72.6","66.9","82.3","29.93","339","0","0","0.00","0.00"
"02:49:58","72.4","66.9","83","29.93","339","0","0","0.00","0.00"
"02:54:57","72.2","67","83.8","29.93","339","0","0","0.00","0.00"
"02:59:59","72.1","67","84","29.93","339","0","0","0.00","0.00"
"03:04:59","72","66.9","84","29.93","339","0","0","0.00","0.00"
"03:09:59","71.9","66.8","84","29.93","339","0","0","0.00","0.00"
"03:14:56","71.8","66.9","84.8","29.94","339","0","0","0.00","0.00"
"03:19:58","71.7","66.8","84.8","29.94","339","0","0","0.00","0.00"
"03:24:57","71.5","66.8","85","29.94","339","0","0","0.00","0.00"
"03:29:56","71.4","66.7","85","29.94","339","0","0","0.00","0.00"
"03:34:59","71.3","66.6","85","29.94","339","0","0","0.00","0.00"
"03:39:58","71.1","66.4","85","29.94","339","0","0","0.00","0.00"
"03:44:57","71","66.4","85.6","29.94","339","0","0","0.00","0.00"
"03:49:56","70.8","66.4","86","29.94","339","0","0","0.00","0.00"
"03:54:57","70.6","66.2","86","29.94","339","0","0","0.00","0.00"
"03:59:57","70.5","66.1","86.2","29.95","339","0","0","0.00","0.00"
"04:04:56","70.4","66.3","87","29.95","339","0","0","0.00","0.00"
"04:09:57","70.2","66.1","87","29.95","339","0","0","0.00","0.00"
"04:14:57","70.2","66.4","87.8","29.95","339","0","0","0.00","0.00"
"04:19:56","70.3","66.6","88","29.95","339","0","0","0.00","0.00"
"04:24:58","70.4","66.7","88","29.95","339","0","0","0.00","0.00"
"04:29:57","70.3","66.6","88","29.95","339","0","0","0.00","0.00"
"04:34:56","70.2","66.5","88","29.95","339","0","0","0.00","0.00"
"04:39:59","70.1","66.4","88","29.95","339","0","0","0.00","0.00"
"04:44:58","70.1","66.4","88","29.95","339","0","0","0.00","0.00"
"04:49:57","70.1","66.4","88","29.94","339","0","0","0.00","0.00"
"04:54:59","70.1","66.4","88","29.94","339","0","0","0.00","0.00"
"04:59:58","70","66.3","88","29.94","339","0","0","0.00","0.00"
"05:04:56","69.8","66.4","88.9","29.94","339","0","0","0.00","0.00"
"05:09:56","69.8","66.4","89","29.94","339","0","0","0.00","0.00"
"05:14:56","69.7","66.3","89","29.95","339","0","0","0.00","0.00"
"05:19:58","69.7","66.3","89","29.95","339","0","0","0.00","0.00"
"05:24:57","69.6","66.2","89","29.95","339","0","0","0.00","0.00"
"05:29:56","69.5","66.4","89.9","29.95","339","0","0","0.00","0.00"
"05:34:58","69.5","66.4","90","29.95","339","0","0","0.00","0.00"
"05:39:58","69.5","66.4","90","29.95","339","0","0","0.00","0.00"
"05:44:58","69.5","66.4","90","29.95","339","0","0","0.00","0.00"
"05:49:56","69.5","66.4","90","29.95","339","0","0","0.00","0.00"
"05:54:56","69.4","66.3","90","29.95","339","0","0","0.00","0.00"
"05:59:58","69.4","66.6","90.8","29.96","339","0","0","0.00","0.00"
"06:04:56","69.4","66.7","91","29.96","339","0","0","0.00","0.00"
"06:09:58","69.3","66.6","91","29.96","339","0","0","0.00","0.00"
"06:14:57","69.3","66.6","91","29.96","339","0","0","0.00","0.00"
"06:19:56","69.3","66.7","91.4","29.96","339","0","0","0.00","0.00"
"06:24:58","69.3","66.6","91","29.96","339","0","0","0.00","0.00"
"06:29:57","69.3","66.6","91","29.96","339","0","0","0.00","0.00"
"06:34:56","69.3","66.8","91.6","29.96","339","0","0","0.00","0.00"
"06:39:58","69.3","66.9","92","29.96","339","0","0","0.00","0.00"
"06:44:58","69.3","66.8","91.7","29.96","339","0","0","0.00","0.00"
"06:49:57","69.3","66.9","92","29.96","339","0","0","0.00","0.00"
"06:54:58","69.2","66.8","92","29.96","339","0","0","0.00","0.00"
"06:59:56","69.1","66.7","92","29.96","339","0","0","0.00","0.00"
"07:04:56","69.1","66.7","92","29.96","339","0","0","0.00","0.00"
"07:09:59","69","66.6","92","29.96","339","0","0","0.00","0.00"
"07:14:58","69","66.6","92.1","29.97","339","0","0","0.00","0.00"
"07:19:56","69.1","66.9","92.8","29.97","339","0","0","0.00","0.00"
"07:24:58","69.1","67","93","29.97","339","0","0","0.00","0.00"
"07:29:56","69","66.9","93","29.97","339","0","0","0.00","0.00"
"07:34:58","69.1","66.9","93","29.97","339","0","0","0.00","0.00"
"07:39:57","69.1","67","93","29.97","339","0","0","0.00","0.00"
"07:44:59","69.2","67.1","93","29.98","339","0","0","0.00","0.00"
"07:49:56","69.5","67.5","93.6","29.98","339","0","0","0.00","0.00"
"07:54:57","69.8","67.7","93.1","29.98","339","0","0","0.00","0.00"
"07:59:59","70.2","68.3","93.7","29.98","339","0","0","0.00","0.00"
"08:04:57","70.8","69","93.9","29.98","339","0","0","0.00","0.00"
"08:09:57","71.6","69.5","93.1","29.98","339","0","0","0.00","0.00"
"08:14:59","72.3","70.1","92.7","29.98","339","0","0","0.00","0.00"
"08:19:56","72.9","70.4","91.9","29.98","339","0","0","0.00","0.00"
"08:24:58","73.5","70.7","91","29.98","339","0","0","0.00","0.00"
"08:29:59","74","71.1","90.8","29.98","339","0","0","0.00","0.00"
"08:34:56","74.3","71","89.3","29.98","339","0","0","0.00","0.00"
"08:39:58","74.6","71","88.7","29.98","339","0","0","0.00","0.00"
"08:44:56","74.7","70.9","88","29.98","339","0","0","0.00","0.00"
"08:49:56","74.9","70.9","87.2","29.98","339","0","0","0.00","0.00"
"08:54:58","75.2","71.1","87","29.98","339","0","0","0.00","0.00"
"08:59:59","75.6","71.3","86.5","29.98","331","0.3","2.4","0.00","0.00"
"09:04:56","76","71.5","86","29.98","331","0","2.3","0.00","0.00"
"09:09:56","76.3","71.7","85.5","29.98","331","0","0","0.00","0.00"
"09:14:59","76.6","71.6","84.4","29.98","331","0","0","0.00","0.00"
"09:19:59","77.2","71.8","83.5","29.98","331","0.3","2.4","0.00","0.00"
"09:24:57","78.3","72","81","29.98","331","0.3","2.3","0.00","0.00"
"09:29:59","79.8","72.6","78.6","29.98","297","1.4","3.6","0.00","0.00"
"09:34:58","81.4","73.1","76","29.98","302","1.9","6","0.00","0.00"
"09:39:56","83.6","73.4","71.7","29.98","275","2.7","8.4","0.00","0.00"
"09:44:59","85.3","73.8","68.5","29.98","298","2.8","12","0.00","0.00"
"09:49:57","86","73.2","65.9","29.97","319","4","11.5","0.00","0.00"
"09:54:59","86.7","73.6","65.1","29.97","248","3.3","8.4","0.00","0.00"
"09:59:57","87.3","73.5","63.7","29.97","333","4.9","16.1","0.00","0.00"
"10:04:56","87.2","73","62.9","29.97","303","4.2","15","0.00","0.00"
"10:09:57","87.4","72.8","62.1","29.97","326","5.4","16.1","0.00","0.00"
"10:14:56","87.2","72.7","62.2","29.98","319","6.3","17.3","0.00","0.00"
"10:19:58","87","72.4","62.1","29.98","324","5.9","17.3","0.00","0.00"
"10:24:57","86.6","72.2","62.3","29.98","317","3.5","10.8","0.00","0.00"
"10:29:58","87.2","72.7","62.3","29.98","292","2.7","7.2","0.00","0.00"
"10:34:57","87.7","72.8","61.4","29.97","292","3.6","12","0.00","0.00"
"10:39:56","87.6","72.4","60.8","29.97","292","5.2","18.4","0.00","0.00"
"10:44:59","88.3","73.1","61","29.97","329","3.8","15","0.00","0.00"
"10:49:57","88.1","72.2","59.3","29.97","310","4.8","17.3","0.00","0.00"
"10:54:56","88","72.1","59.3","29.97","330","5.3","12","0.00","0.00"
"10:59:58","87.8","72","59.6","29.97","308","6","15","0.00","0.00"
"11:04:57","88.3","72.6","59.9","29.97","311","3.7","10.8","0.00","0.00"
"11:09:58","88.8","72.3","58.5","29.97","297","5","12","0.00","0.00"
"11:14:59","89.3","72.9","58.7","29.97","337","4.7","16.1","0.00","0.00"
"11:19:57","89.5","72.3","57.2","29.97","305","4.8","13.2","0.00","0.00"
"11:24:56","88.8","72.2","58.2","29.97","310","3.8","11.5","0.00","0.00"
"11:29:58","89.1","72.1","57.3","29.97","279","5.3","15","0.00","0.00"
"11:34:57","89.8","72.5","57","29.97","228","3.9","13.2","0.00","0.00"
"11:39:57","90.9","73","56","29.97","272","3.1","9.6","0.00","0.00"
"11:44:56","90.4","72.5","55.9","29.97","322","5.1","14.4","0.00","0.00"
"11:49:59","89.8","71.8","55.6","29.96","327","5.6","15","0.00","0.00"
"11:54:58","90.6","72.1","54.7","29.96","310","5.1","12","0.00","0.00"
"11:59:57","91.3","72.3","54","29.96","292","3.5","16.1","0.00","0.00"
"12:04:56","91.6","72.4","53.6","29.96","324","4.2","15.6","0.00","0.00"
"12:09:58","91.5","72.3","53.7","29.96","343","3.5","16.1","0.00","0.00"
"12:14:59","91.6","72.4","53.8","29.96","345","3.1","12","0.00","0.00"
"12:19:59","92.2","72.2","52.2","29.95","250","3.3","7.2","0.00","0.00"
"12:24:58","92","72","52.2","29.95","304","4.1","12","0.00","0.00"
"12:29:57","91.6","72.1","53.1","29.95","321","5.3","12","0.00","0.00"
"12:34:56","91.7","72.3","53.1","29.95","293","3.5","7.2","0.00","0.00"
"12:39:56","92.3","72.4","52.5","29.95","302","4.1","9.6","0.00","0.00"
"12:44:56","92.4","72.7","52.8","29.95","260","2.8","10.8","0.00","0.00"
"12:49:59","93.1","72.3","51","29.94","315","4.4","13.2","0.00","0.00"
"12:54:58","92.9","71.6","50","29.94","330","4.5","13.2","0.00","0.00"
"12:59:57","93.3","72.4","50.8","29.94","265","4","8.4","0.00","0.00"
"13:04:56","93.1","71.7","49.9","29.94","297","3.7","12","0.00","0.00"
"13:09:58","93.7","72.8","50.9","29.94","314","2.1","4.8","0.00","0.00"
"13:14:56","94.1","72.1","49","29.94","234","2.7","8.4","0.00","0.00"
"13:19:59","94.6","72.7","49.3","29.93","270","3.6","10.8","0.00","0.00"
"13:24:59","93.8","71.9","49.2","29.93","276","3.5","13.2","0.00","0.00"
"13:29:58","94.5","72.4","49","29.93","318","3.4","12.7","0.00","0.00"
"13:34:58","95.8","70.6","44.4","29.92","271","4.2","13.2","0.00","0.00"
"13:39:58","95.7","71.5","45.8","29.92","299","3.6","10.8","0.00","0.00"
"13:44:58","95.2","71.3","46.3","29.92","307","3.8","12","0.00","0.00"
"13:49:57","94.3","70.4","46.2","29.92","294","5.8","13.2","0.00","0.00"
"13:54:56","95","70.4","45.2","29.92","313","4.4","8.4","0.00","0.00"
"13:59:59","95.2","70.3","44.7","29.92","267","4.2","13.2","0.00","0.00"
"14:04:56","95.5","71.6","46.3","29.92","247","2.4","12","0.00","0.00"
"14:09:57","96.4","72","45.7","29.92","309","2.9","11.5","0.00","0.00"
"14:14:59","96.5","71.9","45.3","29.92","300","2.3","13.2","0.00","0.00"
"14:19:58","96.1","71","44.6","29.91","335","5.1","16.1","0.00","0.00"
"14:24:58","96.9","70.9","43.2","29.91","251","4.2","13.2","0.00","0.00"
"14:29:57","96.7","69.1","41","29.91","277","4.1","13.2","0.00","0.00"
"14:34:57","96.6","69.8","42.2","29.90","340","5","12","0.00","0.00"
"14:39:57","97.4","70.4","41.9","29.90","315","4.4","8.4","0.00","0.00"
"14:44:57","97.6","69.2","40","29.90","280","3.5","7.2","0.00","0.00"
"14:49:56","98.1","70","40.5","29.90","301","4.1","16.8","0.00","0.00"
"14:54:59","98.2","69.7","40","29.90","335","4.7","17.3","0.00","0.00"
"14:59:58","96.5","69.7","42.1","29.90","298","3.6","12","0.00","0.00"
"15:04:57","96","70","43.2","29.89","267","3","7.2","0.00","0.00"
"15:09:59","96.6","70.2","42.6","29.89","323","3.9","7.2","0.00","0.00"
"15:14:56","96.6","69.6","41.9","29.89","290","4.5","15","0.00","0.00"
"15:19:59","96.7","69.9","42.2","29.89","308","4.7","14.4","0.00","0.00"
"15:24:58","96.3","70","42.8","29.89","323","5.1","15","0.00","0.00"
"15:29:57","96.8","70.5","42.9","29.89","299","3.9","10.8","0.00","0.00"
"15:34:57","97.1","70.3","42.2","29.89","337","4.8","14.4","0.00","0.00"
"15:39:57","98.1","71.3","42.3","29.89","347","4.2","15","0.00","0.00"
"15:44:56","97.7","71","42.5","29.89","342","4.8","13.2","0.00","0.00"
"15:49:56","97.5","70.9","42.5","29.88","325","3.9","12","0.00","0.00"
"15:54:57","97","70.7","42.9","29.88","324","4.4","11.5","0.00","0.00"
"15:59:57","96.5","70.6","43.5","29.88","349","3.6","10.4","0.00","0.00"
"16:04:56","96","70.6","44","29.88","353","3.4","10.8","0.00","0.00"
"16:09:57","95.7","70.3","44.1","29.88","336","2.3","7.2","0.00","0.00"
"16:14:58","95.6","70.3","44.2","29.88","267","2.2","6","0.00","0.00"
"16:19:57","95.4","70","44.1","29.88","325","2.4","4.8","0.00","0.00"
"16:24:57","95.4","70.9","45.3","29.88","328","1.2","10.8","0.00","0.00"
"16:29:56","95.5","70.9","45.1","29.88","348","2.1","10.4","0.00","0.00"
"16:34:56","95.4","69.9","43.8","29.87","322","2.2","6","0.00","0.00"
"16:39:57","95.2","69.8","44","29.87","348","1.9","4.8","0.00","0.00"
"16:44:59","94.9","69.7","44.2","29.87","329","2.5","6","0.00","0.00"
"16:49:58","94.9","70.2","44.9","29.87","324","1.7","4.8","0.00","0.00"
"16:54:58","95","69.4","43.6","29.87","300","2.3","6","0.00","0.00"
"16:59:57","95","68.4","42.2","29.87","275","2.7","7.2","0.00","0.00"
"17:04:57","94.9","68.4","42.2","29.87","345","2.3","10.8","0.00","0.00"
"17:09:58","94.9","68.4","42.3","29.87","262","1.4","3.6","0.00","0.00"
"17:14:59","94.9","68.6","42.5","29.87","293","1.7","6","0.00","0.00"
"17:19:58","94.8","68.5","42.5","29.87","293","2.9","7.2","0.00","0.00"
"17:24:58","94.8","68.5","42.5","29.87","273","2.4","6","0.00","0.00"
"17:29:57","94.9","68.5","42.4","29.87","288","1.7","4.8","0.00","0.00"
"17:34:57","95.6","69.2","42.6","29.87","349","2","6","0.00","0.00"
"17:39:58","96.4","69.2","41.5","29.87","270","2.2","4.6","0.00","0.00"
"17:44:58","97.4","69.8","41","29.87","299","3.3","7.2","0.00","0.00"
"17:49:57","97.8","69.5","40.2","29.86","338","4.2","8.4","0.00","0.00"
"17:54:57","97.8","69.2","39.8","29.86","311","3","6","0.00","0.00"
"17:59:56","97.7","68.9","39.5","29.87","301","3.8","10.8","0.00","0.00"
"18:04:59","97.3","68.4","39.4","29.87","303","2.5","7.2","0.00","0.00"
"18:09:57","96.8","68.6","40.1","29.87","302","2.8","8.4","0.00","0.00"
"18:14:58","96.3","68.5","40.7","29.87","325","2.9","6","0.00","0.00"
"18:19:57","95.7","68.6","41.5","29.87","326","1.8","4.8","0.00","0.00"
"18:24:56","95.2","68.3","41.7","29.87","294","1.5","4.8","0.00","0.00"
"18:29:59","94.8","68.2","42.1","29.87","286","1.8","4.6","0.00","0.00"
"18:34:59","94.4","68","42.3","29.87","240","1.4","3.6","0.00","0.00"
"18:39:58","94.1","68.1","42.9","29.87","259","1.5","3.6","0.00","0.00"
"18:44:59","93.7","68.2","43.5","29.87","288","1","3.6","0.00","0.00"
"18:49:58","93.4","68.2","44","29.87","290","0.3","2.4","0.00","0.00"
"18:54:57","92.9","68.3","44.8","29.87","291","0.2","3.6","0.00","0.00"
"18:59:56","92.6","68.1","44.9","29.87","291","0.3","3.5","0.00","0.00"
"19:04:56","92.4","68.2","45.4","29.87","290","0.8","2.4","0.00","0.00"
"19:09:58","92.1","68.3","46","29.87","290","0.1","1.2","0.00","0.00"
"19:14:58","91.7","68.5","46.9","29.88","291","0","0","0.00","0.00"
"19:19:56","91.2","68.8","48","29.88","291","0","0","0.00","0.00"
"19:24:59","90.6","68.4","48.3","29.88","291","0","0","0.00","0.00"
"19:29:56","90.1","68.5","49.2","29.89","291","0.3","2.4","0.00","0.00"
"19:34:58","89.6","68.5","49.9","29.89","291","0.1","2.3","0.00","0.00"
"19:39:59","89.2","68.7","51","29.89","290","0","1.2","0.00","0.00"
"19:44:57","88.6","68.8","52","29.89","290","0.1","1.2","0.00","0.00"
"19:49:57","88","68.8","53.2","29.89","291","0","1.2","0.00","0.00"
"19:54:57","87.3","68.5","53.7","29.89","291","0.1","1.2","0.00","0.00"
"19:59:57","86.8","69.1","55.8","29.89","291","0.2","1.2","0.00","0.00"
"20:04:57","86.2","69.2","57.1","29.89","290","0.2","1.2","0.00","0.00"
"20:09:56","85.6","68.9","57.7","29.89","291","0.2","1.2","0.00","0.00"
"20:14:57","85.1","68.7","58","29.90","291","0.4","2.4","0.00","0.00"
"20:19:57","84.7","68.3","58","29.90","291","0.1","1.2","0.00","0.00"
"20:24:58","84.4","68.3","58.5","29.90","291","0.2","2.4","0.00","0.00"
"20:29:58","84.1","68.4","59.3","29.90","291","0","1.2","0.00","0.00"
"20:34:59","83.9","68.6","60.1","29.90","291","0.3","2.4","0.00","0.00"
"20:39:59","83.7","68.6","60.7","29.90","291","0.4","2.4","0.00","0.00"
"20:44:56","83.4","68.5","61","29.91","294","0.9","2.4","0.00","0.00"
"20:49:56","83.1","68.3","61.2","29.91","294","0.5","2.4","0.00","0.00"
"20:54:56","82.8","68.3","61.7","29.91","294","0.4","2.4","0.00","0.00"
"20:59:56","82.5","68.2","62","29.92","294","0.9","3.6","0.00","0.00"
"21:04:56","82.4","68.1","62.2","29.92","294","0.8","2.4","0.00","0.00"
"21:09:58","82.2","68.2","62.6","29.92","294","1.6","3.6","0.00","0.00"
"21:14:56","82.3","68.3","62.8","29.92","294","1.4","3.6","0.00","0.00"
"21:19:56","82.3","68.2","62.6","29.91","295","0.6","3.6","0.00","0.00"
"21:24:56","82.2","68","62.3","29.91","295","1","2.4","0.00","0.00"
"21:29:56","82","68.1","62.7","29.92","295","0.4","2.3","0.00","0.00"
"21:34:57","81.8","68","63","29.92","295","0.1","2.4","0.00","0.00"
"21:39:57","81.5","67.7","63","29.92","295","0.5","2.4","0.00","0.00"
"21:44:58","81.3","67.9","63.8","29.92","295","0.1","1.2","0.00","0.00"
"21:49:58","81.1","67.8","64","29.92","295","0.2","2.4","0.00","0.00"
"21:54:58","81","67.9","64.5","29.92","295","0.7","3.6","0.00","0.00"
"21:59:58","81","67.9","64.6","29.92","295","1","3.6","0.00","0.00"
"22:04:58","81","68.1","65","29.92","295","1.3","4.8","0.00","0.00"
"22:09:56","81","68.1","65","29.92","295","0.5","2.4","0.00","0.00"
"22:14:58","80.8","67.9","65","29.93","295","0","0","0.00","0.00"
"22:19:58","80.5","67.6","65","29.93","295","0.1","1.2","0.00","0.00"
"22:24:59","80.3","67.9","66","29.93","295","0","0","0.00","0.00"
"22:29:57","80.2","67.8","66","29.93","295","0","0","0.00","0.00"
"22:34:58","80","67.7","66.4","29.93","295","0.3","3.6","0.00","0.00"
"22:39:58","79.7","67.8","67","29.93","295","0.7","2.4","0.00","0.00"
"22:44:59","79.5","67.9","67.7","29.93","302","0.8","3.6","0.00","0.00"
"22:49:58","79.4","67.9","68","29.93","309","1.5","3.6","0.00","0.00"
"22:54:58","79.4","67.9","68","29.93","5","1.2","3.6","0.00","0.00"
"22:59:57","79.4","67.9","68","29.93","355","1.5","4.8","0.00","0.00"
"23:04:57","79.5","68","68","29.93","355","0.9","3.6","0.00","0.00"
"23:09:59","79.6","68.1","68","29.93","355","0.8","3.6","0.00","0.00"
"23:14:56","79.7","68.2","68","29.93","350","0.2","2.4","0.00","0.00"
"23:19:56","79.6","68.1","68","29.93","351","0.1","1.2","0.00","0.00"
"23:24:56","79.5","68.3","68.6","29.93","351","0.3","2.4","0.00","0.00"
"23:29:57","79.4","68.3","69","29.93","350","0.1","2.4","0.00","0.00"
"23:34:58","79.2","68.1","69","29.93","351","0.3","2.3","0.00","0.00"
"23:39:59","79","68","69","29.93","351","0.1","1.2","0.00","0.00"
"23:44:56","78.9","68.1","69.6","29.93","351","0","0","0.00","0.00"
"23:49:54","78.6","68","70","29.93","351","0","0","0.00","0.00"
